ATLAS 5 CENTAUR DEB, 49359

Orbit data source: Space-Track

ATLAS 5 CENTAUR DEB, 49359 is space debris in HEO originally from a launch on Wed, 17 Oct 2018 UTC launched from the Air Force Eastern Test Range (AFETR). Debris objects in space refer to the collection of defunct objects orbiting the Earth. Examples of debris include non-operational satellites, rocket bodies, and fragments generated from explosions, collisions, or faulty payload assembly.

Loading next visibility...
Identifier
49359, 2018-079FL
Orbit
HEO
Country
Flag of USUS
Related business
Flag of USUnited Launch Alliance/Lockheed Martin (US)
Manufacturer
ULA Decatur
Mission
Spacecraft
Bus & Motor
Unknown
Mass
Unknown
Launch date (UTC)
2018-10-17 (8 years ago)
Launch vehicle
Unknown
Launch site
Air Force Eastern Test Range (AFETR)
Object type
Payload
Rocket body
Debris
Shape & HBR
Unknown shape, 1.1 m
Radar Cross Section
RCS unknown

Expand to show TLE details & history
Last TLE update: 5 days ago

TLE from 5 days ago
0 ATLAS 5 CENTAUR DEB
1 49359U 18079FL  26232.31177984 -.00000138  00000-0  00000-0 0  9993
2 49359  13.4004  16.3537 4715984 357.2520   0.7610  1.87006402 33986
Epoch: 2026-08-20T07:28Z
TLE epoch observation values (Epoch: 2026-08-20T07:28:57.778Z)
Latitude
-0.00001°
Longitude
-64.52261°
Altitude
8,335.366 km
Speed
6.313 km/s
True Right ascension
01h 05m 29s
True Declination
0° 00' 00"
Sunlit
Object was in daylight at epoch
Visualization orbit readout
Latitude
Unknown
Longitude
Unknown
Altitude
Unknown
Speed
Unknown
Apparent Right ascension
Unknown
Apparent Declination
Unknown
Sunlit
N/A
Visualization observer readout
Local Sidereal Time
21:11:30
Azimuth
Unknown
Elevation
Unknown
Doppler factor
Unknown
Orbital elements
Apogee altitude
34,578.116 km
Perigee altitude
8,327.879 km
Semi-major axis
27,831.134 km
Eccentricity
0.4716
Inclination
13.4004°
RAAN
16.3537°
Arg. of periapsis
357.252°
True anomaly
2.40299°
Mean anomaly
0.761°
Eccentric anomaly
1.44006°
Mean motion
0.46746 °/min
Orbital period
770.12 mins
BSTAR
0
Loading maneuver chart data...
Computing Atmospheric mass density...

Documentation

Showing up to 5 results
|